Time,TemperatureF,DewpointF,PressureIn,WindDirection,WindDirectionDegrees,WindSpeedMPH,WindSpeedGustMPH,Humidity,HourlyPrecipIn,Conditions,Clouds,dailyrainin,SoftwareType,DateUTC
2013-03-30 00:00:00,26.4,19.6,30.24,WNW,284,0.0,0.0,75,0.00,,---,0.00,VWS V14.01,2013-03-30 04:00:00,
2013-03-30 00:05:00,26.3,19.5,30.24,WNW,284,0.0,0.0,75,0.00,,---,0.00,VWS V14.01,2013-03-30 04:05:00,
2013-03-30 00:10:00,26.1,19.3,30.24,WNW,284,0.0,0.0,75,0.00,,---,0.00,VWS V14.01,2013-03-30 04:10:00,
2013-03-30 00:15:00,26.0,19.2,30.23,WNW,284,0.0,0.0,75,0.00,,---,0.00,VWS V14.01,2013-03-30 04:15:00,
2013-03-30 00:20:00,25.8,19.0,30.23,WNW,284,0.0,0.0,75,0.00,,---,0.00,VWS V14.01,2013-03-30 04:20:00,
2013-03-30 00:25:00,25.7,18.9,30.23,WNW,284,0.0,0.0,75,0.00,,---,0.00,VWS V14.01,2013-03-30 04:25:00,
2013-03-30 00:30:00,25.7,19.2,30.23,WNW,284,0.0,0.0,76,0.00,,---,0.00,VWS V14.01,2013-03-30 04:30:00,
2013-03-30 00:35:00,25.6,19.1,30.23,WNW,284,0.0,0.0,76,0.00,,---,0.00,VWS V14.01,2013-03-30 04:35:00,
2013-03-30 00:40:00,25.4,18.9,30.23,WNW,284,0.0,0.0,76,0.00,,---,0.00,VWS V14.01,2013-03-30 04:40:00,
2013-03-30 00:45:00,25.3,19.1,30.23,WNW,284,0.0,0.0,77,0.00,,---,0.00,VWS V14.01,2013-03-30 04:45:00,
2013-03-30 00:50:00,25.1,18.9,30.23,WNW,284,0.0,0.0,77,0.00,,---,0.00,VWS V14.01,2013-03-30 04:50:00,
2013-03-30 00:55:00,25.0,18.8,30.23,WNW,284,0.0,0.0,77,0.00,,---,0.00,VWS V14.01,2013-03-30 04:55:00,
2013-03-30 01:00:00,25.0,19.1,30.23,WNW,284,0.0,0.0,78,0.00,,---,0.00,VWS V14.01,2013-03-30 05:00:00,
2013-03-30 01:05:00,24.8,18.9,30.23,WNW,284,0.0,0.0,78,0.00,,---,0.00,VWS V14.01,2013-03-30 05:05:00,
2013-03-30 01:10:00,24.8,19.2,30.23,WNW,284,0.0,0.0,79,0.00,,---,0.00,VWS V14.01,2013-03-30 05:10:00,
2013-03-30 01:15:00,24.8,19.2,30.23,WNW,284,0.0,0.0,79,0.00,,---,0.00,VWS V14.01,2013-03-30 05:15:00,
2013-03-30 01:20:00,24.7,19.1,30.23,WNW,284,0.0,0.0,79,0.00,,---,0.00,VWS V14.01,2013-03-30 05:20:00,
2013-03-30 01:25:00,24.7,19.1,30.23,WNW,284,0.0,0.0,79,0.00,,---,0.00,VWS V14.01,2013-03-30 05:25:00,
2013-03-30 01:30:00,24.5,18.9,30.23,WNW,284,0.0,0.0,79,0.00,,---,0.00,VWS V14.01,2013-03-30 05:30:00,
2013-03-30 01:35:00,24.4,18.8,30.23,WNW,284,0.0,0.0,79,0.00,,---,0.00,VWS V14.01,2013-03-30 05:35:00,
2013-03-30 01:40:00,24.2,18.6,30.23,WNW,284,0.0,0.0,79,0.00,,---,0.00,VWS V14.01,2013-03-30 05:40:00,
2013-03-30 01:45:00,24.2,18.6,30.23,WNW,284,0.0,0.0,79,0.00,,---,0.00,VWS V14.01,2013-03-30 05:45:00,
2013-03-30 01:50:00,24.1,18.8,30.24,WNW,284,0.0,0.0,80,0.00,,---,0.00,VWS V14.01,2013-03-30 05:50:00,
2013-03-30 01:56:00,24.1,19.1,30.24,WNW,284,0.0,0.0,81,0.00,,---,0.00,VWS V14.01,2013-03-30 05:56:00,
2013-03-30 02:01:00,23.9,18.9,30.24,WNW,284,0.0,0.0,81,0.00,,---,0.00,VWS V14.01,2013-03-30 06:01:00,
2013-03-30 02:06:00,23.9,18.9,30.24,WNW,284,0.0,0.0,81,0.00,,---,0.00,VWS V14.01,2013-03-30 06:06:00,
2013-03-30 02:11:00,23.8,19.1,30.24,WNW,284,0.0,0.0,82,0.00,,---,0.00,VWS V14.01,2013-03-30 06:11:00,
2013-03-30 02:16:00,23.8,19.1,30.24,WNW,284,0.0,0.0,82,0.00,,---,0.00,VWS V14.01,2013-03-30 06:16:00,
2013-03-30 02:21:00,23.8,19.1,30.24,WNW,284,0.0,0.0,82,0.00,,---,0.00,VWS V14.01,2013-03-30 06:21:00,
2013-03-30 02:26:00,23.8,19.4,30.24,WNW,284,0.0,0.0,83,0.00,,---,0.00,VWS V14.01,2013-03-30 06:26:00,
2013-03-30 02:31:00,23.8,19.4,30.24,WNW,284,0.0,0.0,83,0.00,,---,0.00,VWS V14.01,2013-03-30 06:31:00,
2013-03-30 02:36:00,23.8,19.4,30.24,WNW,284,0.0,0.0,83,0.00,,---,0.00,VWS V14.01,2013-03-30 06:36:00,
2013-03-30 02:41:00,23.8,19.1,30.24,WNW,284,0.0,0.0,82,0.00,,---,0.00,VWS V14.01,2013-03-30 06:41:00,
2013-03-30 02:46:00,23.8,18.8,30.24,WNW,284,0.0,0.0,81,0.00,,---,0.00,VWS V14.01,2013-03-30 06:46:00,
2013-03-30 02:51:00,23.6,18.6,30.24,WNW,284,0.0,0.0,81,0.00,,---,0.00,VWS V14.01,2013-03-30 06:51:00,
2013-03-30 02:56:00,23.6,18.4,30.23,WNW,284,0.0,0.0,80,0.00,,---,0.00,VWS V14.01,2013-03-30 06:56:00,
2013-03-30 03:01:00,23.5,18.2,30.23,WNW,284,0.0,0.0,80,0.00,,---,0.00,VWS V14.01,2013-03-30 07:01:00,
2013-03-30 03:06:00,23.3,17.8,30.23,WNW,284,0.0,0.0,79,0.00,,---,0.00,VWS V14.01,2013-03-30 07:06:00,
2013-03-30 03:11:00,23.2,17.7,30.23,WNW,284,0.0,0.0,79,0.00,,---,0.00,VWS V14.01,2013-03-30 07:11:00,
2013-03-30 03:16:00,22.9,17.7,30.23,WNW,284,0.0,0.0,80,0.00,,---,0.00,VWS V14.01,2013-03-30 07:16:00,
2013-03-30 03:21:00,22.7,17.5,30.23,WNW,284,0.0,0.0,80,0.00,,---,0.00,VWS V14.01,2013-03-30 07:21:00,
2013-03-30 03:26:00,22.5,17.6,30.23,WNW,284,0.0,0.0,81,0.00,,---,0.00,VWS V14.01,2013-03-30 07:26:00,
2013-03-30 03:31:00,22.4,17.8,30.23,SW,214,0.0,0.0,82,0.00,,---,0.00,VWS V14.01,2013-03-30 07:31:00,
2013-03-30 03:37:00,22.4,18.0,30.23,SW,214,0.0,0.0,83,0.00,,---,0.00,VWS V14.01,2013-03-30 07:37:00,
2013-03-30 03:42:00,22.4,18.0,30.23,SW,214,0.0,0.0,83,0.00,,---,0.00,VWS V14.01,2013-03-30 07:42:00,
2013-03-30 03:47:00,22.4,18.3,30.23,SW,214,0.0,0.0,84,0.00,,---,0.00,VWS V14.01,2013-03-30 07:47:00,
2013-03-30 03:52:00,22.4,18.3,30.23,SW,214,0.0,0.0,84,0.00,,---,0.00,VWS V14.01,2013-03-30 07:52:00,
2013-03-30 03:57:00,22.2,18.1,30.23,SW,214,0.0,0.0,84,0.00,,---,0.00,VWS V14.01,2013-03-30 07:57:00,
2013-03-30 04:02:00,22.5,18.7,30.23,SSW,205,0.0,0.0,85,0.00,,---,0.00,VWS V14.01,2013-03-30 08:02:00,
2013-03-30 04:07:00,22.9,18.8,30.23,SSW,196,0.0,0.0,84,0.00,,---,0.00,VWS V14.01,2013-03-30 08:07:00,
2013-03-30 04:12:00,23.0,18.9,30.23,SSW,196,0.0,0.0,84,0.00,,---,0.00,VWS V14.01,2013-03-30 08:12:00,
2013-03-30 04:17:00,23.2,19.1,30.22,SSW,196,0.0,0.0,84,0.00,,---,0.00,VWS V14.01,2013-03-30 08:17:00,
2013-03-30 04:22:00,23.2,18.8,30.22,SSW,196,0.0,0.0,83,0.00,,---,0.00,VWS V14.01,2013-03-30 08:22:00,
2013-03-30 04:27:00,23.2,18.8,30.22,SSW,196,0.0,0.0,83,0.00,,---,0.00,VWS V14.01,2013-03-30 08:27:00,
2013-03-30 04:32:00,23.2,18.5,30.22,SSW,196,0.0,0.0,82,0.00,,---,0.00,VWS V14.01,2013-03-30 08:32:00,
2013-03-30 04:37:00,23.2,18.5,30.22,South,188,0.0,0.0,82,0.00,,---,0.00,VWS V14.01,2013-03-30 08:37:00,
2013-03-30 04:42:00,23.3,18.3,30.21,South,188,0.0,0.0,81,0.00,,---,0.00,VWS V14.01,2013-03-30 08:42:00,
2013-03-30 04:47:00,23.3,18.3,30.21,SSW,200,0.0,0.0,81,0.00,,---,0.00,VWS V14.01,2013-03-30 08:47:00,
2013-03-30 04:52:00,23.5,18.2,30.21,SSW,209,0.0,0.0,80,0.00,,---,0.00,VWS V14.01,2013-03-30 08:52:00,
2013-03-30 04:57:00,23.5,18.0,30.21,SW,219,0.0,0.0,79,0.00,,---,0.00,VWS V14.01,2013-03-30 08:57:00,
2013-03-30 05:02:00,23.8,18.0,30.20,SSW,194,0.0,0.0,78,0.00,,---,0.00,VWS V14.01,2013-03-30 09:02:00,
2013-03-30 05:07:00,23.9,18.0,30.20,South,186,0.0,0.0,78,0.00,,---,0.00,VWS V14.01,2013-03-30 09:07:00,
2013-03-30 05:12:00,24.2,17.7,30.20,SSE,160,0.0,0.0,76,0.00,,---,0.00,VWS V14.01,2013-03-30 09:12:00,
2013-03-30 05:17:00,24.4,17.6,30.19,South,189,0.0,0.0,75,0.00,,---,0.00,VWS V14.01,2013-03-30 09:17:00,
2013-03-30 05:22:00,24.5,17.7,30.19,SSW,202,0.0,0.0,75,0.00,,---,0.00,VWS V14.01,2013-03-30 09:22:00,
2013-03-30 05:27:00,24.7,17.6,30.19,SSW,209,0.0,0.0,74,0.00,,---,0.00,VWS V14.01,2013-03-30 09:27:00,
2013-03-30 05:32:00,25.0,17.3,30.19,SW,214,0.0,0.0,72,0.00,,---,0.00,VWS V14.01,2013-03-30 09:32:00,
2013-03-30 05:34:00,25.1,17.4,30.19,SW,215,0.0,0.0,72,0.00,,---,0.00,VWS V14.01,2013-03-30 09:34:00,
2013-03-30 05:39:00,25.4,17.6,30.19,SSW,207,0.0,0.0,72,0.00,,---,0.00,VWS V14.01,2013-03-30 09:39:00,
2013-03-30 05:44:00,25.6,17.8,30.19,SW,217,0.0,0.0,72,0.00,,---,0.00,VWS V14.01,2013-03-30 09:44:00,
2013-03-30 05:49:00,25.6,18.2,30.19,WSW,248,0.0,0.0,73,0.00,,---,0.00,VWS V14.01,2013-03-30 09:49:00,
2013-03-30 05:54:00,25.6,18.8,30.19,SSW,208,0.0,0.0,75,0.00,,---,0.00,VWS V14.01,2013-03-30 09:54:00,
2013-03-30 05:59:00,25.3,18.5,30.19,SW,216,0.0,0.0,75,0.00,,---,0.00,VWS V14.01,2013-03-30 09:59:00,
2013-03-30 06:04:00,25.0,18.2,30.19,SW,215,0.0,0.0,75,0.00,,---,0.00,VWS V14.01,2013-03-30 10:04:00,
2013-03-30 06:09:00,24.7,17.9,30.19,SW,217,0.0,0.0,75,0.00,,---,0.00,VWS V14.01,2013-03-30 10:09:00,
2013-03-30 06:14:00,24.5,17.7,30.19,SW,217,0.0,0.0,75,0.00,,---,0.00,VWS V14.01,2013-03-30 10:14:00,
2013-03-30 06:19:00,24.2,17.4,30.19,SW,217,0.0,0.0,75,0.00,,---,0.00,VWS V14.01,2013-03-30 10:19:00,
2013-03-30 06:24:00,24.1,17.3,30.18,SW,215,0.0,0.0,75,0.00,,---,0.00,VWS V14.01,2013-03-30 10:24:00,
2013-03-30 06:29:00,23.9,17.1,30.18,SSW,206,0.0,0.0,75,0.00,,---,0.00,VWS V14.01,2013-03-30 10:29:00,
2013-03-30 06:34:00,23.9,17.5,30.19,West,267,0.0,0.0,76,0.00,,---,0.00,VWS V14.01,2013-03-30 10:34:00,
2013-03-30 06:39:00,23.9,18.0,30.19,West,267,0.0,0.0,78,0.00,,---,0.00,VWS V14.01,2013-03-30 10:39:00,
2013-03-30 06:44:00,23.6,17.8,30.19,WSW,254,0.0,0.0,78,0.00,,---,0.00,VWS V14.01,2013-03-30 10:44:00,
2013-03-30 06:49:00,23.5,17.4,30.19,SW,232,0.0,0.0,77,0.00,,---,0.00,VWS V14.01,2013-03-30 10:49:00,
2013-03-30 06:54:00,23.3,17.2,30.19,SW,232,0.0,0.0,77,0.00,,---,0.00,VWS V14.01,2013-03-30 10:54:00,
2013-03-30 06:59:00,22.7,16.3,30.18,SW,232,0.0,0.0,76,0.00,,---,0.00,VWS V14.01,2013-03-30 10:59:00,
2013-03-30 07:04:00,22.1,16.0,30.18,SW,232,0.0,0.0,77,0.00,,---,0.00,VWS V14.01,2013-03-30 11:04:00,
2013-03-30 07:09:00,21.8,15.7,30.19,SW,232,0.0,0.0,77,0.00,,---,0.00,VWS V14.01,2013-03-30 11:09:00,
2013-03-30 07:14:00,21.4,15.6,30.18,SW,232,0.0,0.0,78,0.00,,---,0.00,VWS V14.01,2013-03-30 11:14:00,
2013-03-30 07:19:00,21.1,15.6,30.18,SW,232,0.0,0.0,79,0.00,,---,0.00,VWS V14.01,2013-03-30 11:19:00,
2013-03-30 07:24:00,20.8,15.6,30.18,WSW,250,0.0,0.0,80,0.00,,---,0.00,VWS V14.01,2013-03-30 11:24:00,
2013-03-30 07:29:00,20.5,15.6,30.18,WSW,250,0.0,0.0,81,0.00,,---,0.00,VWS V14.01,2013-03-30 11:29:00,
2013-03-30 07:34:00,20.3,15.4,30.19,WSW,250,0.0,0.0,81,0.00,,---,0.00,VWS V14.01,2013-03-30 11:34:00,
2013-03-30 07:39:00,20.2,15.3,30.18,WSW,250,0.0,0.0,81,0.00,,---,0.00,VWS V14.01,2013-03-30 11:39:00,
2013-03-30 07:44:00,20.0,15.7,30.18,WSW,250,0.0,0.0,83,0.00,,---,0.00,VWS V14.01,2013-03-30 11:44:00,
2013-03-30 07:49:00,20.0,15.7,30.18,SSW,212,0.0,0.0,83,0.00,,---,0.00,VWS V14.01,2013-03-30 11:49:00,
2013-03-30 07:54:00,20.2,16.1,30.18,SSW,212,0.0,0.0,84,0.00,,---,0.00,VWS V14.01,2013-03-30 11:54:00,
2013-03-30 07:59:00,20.5,16.4,30.18,South,190,0.0,0.0,84,0.00,,---,0.00,VWS V14.01,2013-03-30 11:59:00,
2013-03-30 08:04:00,20.8,16.7,30.17,South,191,0.0,0.0,84,0.00,,---,0.00,VWS V14.01,2013-03-30 12:04:00,
2013-03-30 08:09:00,21.1,16.8,30.17,SSW,193,0.0,0.0,83,0.00,,---,0.00,VWS V14.01,2013-03-30 12:09:00,
2013-03-30 08:14:00,21.6,17.2,30.17,SSW,209,0.0,0.0,83,0.00,,---,0.00,VWS V14.01,2013-03-30 12:14:00,
2013-03-30 08:19:00,22.4,18.0,30.17,SW,215,0.0,0.0,83,0.00,,---,0.00,VWS V14.01,2013-03-30 12:19:00,
2013-03-30 08:24:00,23.9,18.0,30.17,SSW,205,0.0,0.0,78,0.00,,---,0.00,VWS V14.01,2013-03-30 12:24:00,
2013-03-30 08:29:00,25.6,17.8,30.17,SSW,209,0.0,0.0,72,0.00,,---,0.00,VWS V14.01,2013-03-30 12:29:00,
2013-03-30 08:34:00,27.0,17.9,30.18,SSW,200,0.0,0.0,68,0.00,,---,0.00,VWS V14.01,2013-03-30 12:34:00,
2013-03-30 08:39:00,28.1,17.5,30.17,SSW,206,0.0,0.0,64,0.00,,---,0.00,VWS V14.01,2013-03-30 12:39:00,
2013-03-30 08:44:00,29.3,17.9,30.17,South,169,0.0,0.0,62,0.00,,---,0.00,VWS V14.01,2013-03-30 12:44:00,
2013-03-30 08:49:00,30.1,17.5,30.17,South,171,0.0,0.0,59,0.00,,---,0.00,VWS V14.01,2013-03-30 12:49:00,
2013-03-30 08:54:00,31.2,18.2,30.17,South,176,0.0,0.0,58,0.00,,---,0.00,VWS V14.01,2013-03-30 12:54:00,
2013-03-30 08:59:00,31.9,18.4,30.17,SW,219,0.0,0.0,57,0.00,,---,0.00,VWS V14.01,2013-03-30 12:59:00,
2013-03-30 09:04:00,32.7,18.3,30.17,SSW,211,0.0,0.0,55,0.00,,---,0.00,VWS V14.01,2013-03-30 13:04:00,
2013-03-30 09:10:00,33.4,18.6,30.17,SSE,156,0.0,0.0,54,0.00,,---,0.00,VWS V14.01,2013-03-30 13:10:00,
2013-03-30 09:15:00,33.5,19.1,30.16,South,177,0.0,0.0,55,0.00,,---,0.00,VWS V14.01,2013-03-30 13:15:00,
2013-03-30 09:20:00,34.0,18.7,30.16,South,183,0.0,0.0,53,0.00,,---,0.00,VWS V14.01,2013-03-30 13:20:00,
2013-03-30 09:25:00,34.6,17.9,30.16,SSW,200,0.0,0.0,50,0.00,,---,0.00,VWS V14.01,2013-03-30 13:25:00,
2013-03-30 09:30:00,35.6,18.8,30.16,South,184,0.0,0.0,50,0.00,,---,0.00,VWS V14.01,2013-03-30 13:30:00,
2013-03-30 09:35:00,36.3,19.5,30.15,SSW,202,0.0,0.0,50,0.00,,---,0.00,VWS V14.01,2013-03-30 13:35:00,
2013-03-30 09:40:00,36.6,19.7,30.15,SW,219,0.0,0.0,50,0.00,,---,0.00,VWS V14.01,2013-03-30 13:40:00,
2013-03-30 09:45:00,37.2,18.8,30.15,SSW,198,0.0,0.0,47,0.00,,---,0.00,VWS V14.01,2013-03-30 13:45:00,
2013-03-30 09:50:00,38.0,18.0,30.15,SSW,200,0.0,0.0,44,0.00,,---,0.00,VWS V14.01,2013-03-30 13:50:00,
2013-03-30 09:55:00,38.3,18.8,30.15,South,185,0.0,0.0,45,0.00,,---,0.00,VWS V14.01,2013-03-30 13:55:00,
2013-03-30 10:00:00,38.6,19.1,30.15,SSW,210,0.0,0.0,45,0.00,,---,0.00,VWS V14.01,2013-03-30 14:00:00,
2013-03-30 10:05:00,39.2,19.1,30.15,SSW,203,0.0,0.0,44,0.00,,---,0.00,VWS V14.01,2013-03-30 14:05:00,
2013-03-30 10:10:00,39.8,19.1,30.14,SSW,198,0.0,0.0,43,0.00,,---,0.00,VWS V14.01,2013-03-30 14:10:00,
2013-03-30 10:15:00,40.1,19.4,30.14,SW,227,0.0,0.0,43,0.00,,---,0.00,VWS V14.01,2013-03-30 14:15:00,
2013-03-30 10:20:00,40.5,18.7,30.14,SSW,202,0.0,0.0,41,0.00,,---,0.00,VWS V14.01,2013-03-30 14:20:00,
2013-03-30 10:25:00,40.8,18.9,30.14,SSW,205,0.0,0.0,41,0.00,,---,0.00,VWS V14.01,2013-03-30 14:25:00,
2013-03-30 10:30:00,40.9,20.1,30.14,SSW,208,0.0,0.0,43,0.00,,---,0.00,VWS V14.01,2013-03-30 14:30:00,
2013-03-30 10:35:00,41.3,20.0,30.13,SSW,201,0.0,0.0,42,0.00,,---,0.00,VWS V14.01,2013-03-30 14:35:00,
2013-03-30 10:40:00,41.8,21.0,30.13,South,191,0.0,0.0,43,0.00,,---,0.00,VWS V14.01,2013-03-30 14:40:00,
2013-03-30 10:45:00,42.5,19.9,30.13,SSE,153,0.0,0.0,40,0.00,,---,0.00,VWS V14.01,2013-03-30 14:45:00,
2013-03-30 10:50:00,43.1,18.6,30.12,SW,229,0.0,0.0,37,0.00,,---,0.00,VWS V14.01,2013-03-30 14:50:00,
2013-03-30 10:55:00,43.6,17.8,30.12,SW,232,0.0,0.0,35,0.00,,---,0.00,VWS V14.01,2013-03-30 14:55:00,
2013-03-30 11:00:00,44.1,16.9,30.11,South,181,0.0,0.0,33,0.00,,---,0.00,VWS V14.01,2013-03-30 15:00:00,
2013-03-30 11:05:00,44.3,19.0,30.11,SSW,205,0.0,0.0,36,0.00,,---,0.00,VWS V14.01,2013-03-30 15:05:00,
2013-03-30 11:10:00,44.8,18.2,30.10,SSW,212,0.0,0.0,34,0.00,,---,0.00,VWS V14.01,2013-03-30 15:10:00,
2013-03-30 11:15:00,45.2,19.2,30.10,South,184,0.0,0.0,35,0.00,,---,0.00,VWS V14.01,2013-03-30 15:15:00,
2013-03-30 11:20:00,45.5,19.5,30.10,SW,232,0.0,0.0,35,0.00,,---,0.00,VWS V14.01,2013-03-30 15:20:00,
2013-03-30 11:25:00,46.0,17.8,30.10,SSW,213,0.0,0.0,32,0.00,,---,0.00,VWS V14.01,2013-03-30 15:25:00,
2013-03-30 11:30:00,46.2,16.5,30.09,SSW,209,0.0,0.0,30,0.00,,---,0.00,VWS V14.01,2013-03-30 15:30:00,
2013-03-30 11:35:00,46.8,17.8,30.09,SSW,196,0.0,0.0,31,0.00,,---,0.00,VWS V14.01,2013-03-30 15:35:00,
2013-03-30 11:40:00,47.3,16.7,30.09,South,188,0.0,0.0,29,0.00,,---,0.00,VWS V14.01,2013-03-30 15:40:00,
2013-03-30 11:45:00,47.7,17.8,30.09,WSW,248,0.0,0.0,30,0.00,,---,0.00,VWS V14.01,2013-03-30 15:45:00,
2013-03-30 11:50:00,48.2,16.6,30.09,SW,219,0.0,0.0,28,0.00,,---,0.00,VWS V14.01,2013-03-30 15:50:00,
2013-03-30 11:55:00,48.6,17.0,30.09,SSW,195,0.0,0.0,28,0.00,,---,0.00,VWS V14.01,2013-03-30 15:55:00,
2013-03-30 12:00:00,49.1,16.6,30.08,SSW,202,0.0,0.0,27,0.00,,---,0.00,VWS V14.01,2013-03-30 16:00:00,
2013-03-30 12:05:00,49.2,16.7,30.08,SW,224,0.0,0.0,27,0.00,,---,0.00,VWS V14.01,2013-03-30 16:05:00,
2013-03-30 12:10:00,49.4,17.7,30.08,WSW,237,0.0,0.0,28,0.00,,---,0.00,VWS V14.01,2013-03-30 16:10:00,
2013-03-30 12:15:00,49.4,16.0,30.07,SW,226,0.0,0.0,26,0.00,,---,0.00,VWS V14.01,2013-03-30 16:15:00,
2013-03-30 12:20:00,49.6,17.0,30.07,SW,235,0.0,0.0,27,0.00,,---,0.00,VWS V14.01,2013-03-30 16:20:00,
2013-03-30 12:25:00,50.1,16.6,30.07,SSW,201,0.0,0.0,26,0.00,,---,0.00,VWS V14.01,2013-03-30 16:25:00,
2013-03-30 12:30:00,50.5,16.0,30.06,South,170,0.0,0.0,25,0.00,,---,0.00,VWS V14.01,2013-03-30 16:30:00,
2013-03-30 12:35:00,50.7,15.2,30.06,SSW,207,0.0,0.0,24,0.00,,---,0.00,VWS V14.01,2013-03-30 16:35:00,
2013-03-30 12:40:00,50.2,16.6,30.06,West,263,0.0,0.0,26,0.00,,---,0.00,VWS V14.01,2013-03-30 16:40:00,
2013-03-30 12:45:00,50.4,16.8,30.05,SSW,192,0.0,0.0,26,0.00,,---,0.00,VWS V14.01,2013-03-30 16:45:00,
2013-03-30 12:50:00,50.8,16.3,30.05,WSW,258,0.0,0.0,25,0.00,,---,0.00,VWS V14.01,2013-03-30 16:50:00,
2013-03-30 12:55:00,50.8,17.2,30.05,West,276,0.0,0.0,26,0.00,,---,0.00,VWS V14.01,2013-03-30 16:55:00,
2013-03-30 13:00:00,50.8,16.3,30.05,South,169,0.0,0.0,25,0.00,,---,0.00,VWS V14.01,2013-03-30 17:00:00,
2013-03-30 13:05:00,51.1,16.5,30.05,SW,219,0.0,0.0,25,0.00,,---,0.00,VWS V14.01,2013-03-30 17:05:00,
2013-03-30 13:10:00,51.3,18.5,30.04,SW,222,0.0,0.0,27,0.00,,---,0.00,VWS V14.01,2013-03-30 17:10:00,
2013-03-30 13:15:00,51.1,16.5,30.04,SSW,213,0.0,0.0,25,0.00,,---,0.00,VWS V14.01,2013-03-30 17:15:00,
2013-03-30 13:20:00,50.8,17.2,30.03,South,178,0.0,0.0,26,0.00,,---,0.00,VWS V14.01,2013-03-30 17:20:00,
2013-03-30 13:25:00,50.8,17.2,30.03,SSW,200,0.0,0.0,26,0.00,,---,0.00,VWS V14.01,2013-03-30 17:25:00,
2013-03-30 13:30:00,50.7,18.0,30.03,South,186,0.0,0.0,27,0.00,,---,0.00,VWS V14.01,2013-03-30 17:30:00,
2013-03-30 13:36:00,50.4,16.8,30.02,WSW,253,0.0,0.0,26,0.00,,---,0.00,VWS V14.01,2013-03-30 17:36:00,
2013-03-30 13:41:00,50.1,16.6,30.02,SSW,195,0.0,0.0,26,0.00,,---,0.00,VWS V14.01,2013-03-30 17:41:00,
2013-03-30 13:46:00,50.4,17.7,30.02,SW,217,0.0,0.0,27,0.00,,---,0.00,VWS V14.01,2013-03-30 17:46:00,
2013-03-30 13:51:00,50.4,18.5,30.01,SW,216,0.0,0.0,28,0.00,,---,0.00,VWS V14.01,2013-03-30 17:51:00,
2013-03-30 13:56:00,50.4,17.7,30.01,SSW,200,0.0,0.0,27,0.00,,---,0.00,VWS V14.01,2013-03-30 17:56:00,
2013-03-30 14:01:00,50.1,18.3,30.01,SSW,192,0.0,0.0,28,0.00,,---,0.00,VWS V14.01,2013-03-30 18:01:00,
2013-03-30 14:06:00,49.6,17.9,30.01,SSW,198,0.0,0.0,28,0.00,,---,0.00,VWS V14.01,2013-03-30 18:06:00,
2013-03-30 14:11:00,48.9,18.1,30.01,WSW,242,0.0,0.0,29,0.00,,---,0.00,VWS V14.01,2013-03-30 18:11:00,
2013-03-30 14:16:00,48.8,17.2,30.01,SW,220,0.0,0.0,28,0.00,,---,0.00,VWS V14.01,2013-03-30 18:16:00,
2013-03-30 14:21:00,48.8,17.2,30.01,SW,229,0.0,0.0,28,0.00,,---,0.00,VWS V14.01,2013-03-30 18:21:00,
2013-03-30 14:26:00,48.8,17.2,30.01,SW,227,0.0,0.0,28,0.00,,---,0.00,VWS V14.01,2013-03-30 18:26:00,
2013-03-30 14:31:00,48.8,17.2,30.01,SW,233,0.0,0.0,28,0.00,,---,0.00,VWS V14.01,2013-03-30 18:31:00,
2013-03-30 14:36:00,48.9,16.4,30.01,SW,217,0.0,0.0,27,0.00,,---,0.00,VWS V14.01,2013-03-30 18:36:00,
2013-03-30 14:41:00,49.1,16.6,30.01,SSW,195,0.0,0.0,27,0.00,,---,0.00,VWS V14.01,2013-03-30 18:41:00,
2013-03-30 14:46:00,49.1,17.4,30.01,WSW,242,0.0,0.0,28,0.00,,---,0.00,VWS V14.01,2013-03-30 18:46:00,
2013-03-30 14:51:00,48.9,16.4,30.01,SSW,196,0.0,0.0,27,0.00,,---,0.00,VWS V14.01,2013-03-30 18:51:00,
2013-03-30 14:56:00,48.9,16.4,30.01,West,273,0.0,0.0,27,0.00,,---,0.00,VWS V14.01,2013-03-30 18:56:00,
2013-03-30 15:01:00,48.6,16.1,30.01,SSW,209,0.0,0.0,27,0.00,,---,0.00,VWS V14.01,2013-03-30 19:01:00,
2013-03-30 15:06:00,48.6,16.1,30.01,WSW,238,0.0,0.0,27,0.00,,---,0.00,VWS V14.01,2013-03-30 19:06:00,
2013-03-30 15:11:00,48.6,17.0,30.01,WSW,249,0.0,0.0,28,0.00,,---,0.00,VWS V14.01,2013-03-30 19:11:00,
2013-03-30 15:16:00,48.6,17.0,30.01,WSW,248,0.0,0.0,28,0.00,,---,0.00,VWS V14.01,2013-03-30 19:16:00,
2013-03-30 15:21:00,48.8,16.3,30.01,SSW,194,0.0,0.0,27,0.00,,---,0.00,VWS V14.01,2013-03-30 19:21:00,
2013-03-30 15:26:00,48.6,17.0,30.01,SSW,198,0.0,0.0,28,0.00,,---,0.00,VWS V14.01,2013-03-30 19:26:00,
2013-03-30 15:31:00,48.6,17.0,30.01,SSW,213,0.0,0.0,28,0.00,,---,0.00,VWS V14.01,2013-03-30 19:31:00,
2013-03-30 15:36:00,48.6,17.0,30.00,SW,220,0.0,0.0,28,0.00,,---,0.00,VWS V14.01,2013-03-30 19:36:00,
2013-03-30 15:41:00,48.6,16.1,30.00,SW,221,0.0,0.0,27,0.00,,---,0.00,VWS V14.01,2013-03-30 19:41:00,
2013-03-30 15:47:00,48.8,18.0,30.00,WSW,240,0.0,0.0,29,0.00,,---,0.00,VWS V14.01,2013-03-30 19:47:00,
2013-03-30 15:52:00,48.9,17.2,30.00,WNW,288,0.0,0.0,28,0.00,,---,0.00,VWS V14.01,2013-03-30 19:52:00,
2013-03-30 15:57:00,48.9,16.4,30.00,SW,233,0.0,0.0,27,0.00,,---,0.00,VWS V14.01,2013-03-30 19:57:00,
2013-03-30 16:02:00,48.9,18.1,30.00,WNW,284,0.0,0.0,29,0.00,,---,0.00,VWS V14.01,2013-03-30 20:02:00,
2013-03-30 16:07:00,48.6,18.6,30.00,WNW,282,0.0,0.0,30,0.00,,---,0.00,VWS V14.01,2013-03-30 20:07:00,
2013-03-30 16:12:00,48.0,18.8,29.99,WNW,283,0.0,0.0,31,0.00,,---,0.00,VWS V14.01,2013-03-30 20:12:00,
2013-03-30 16:17:00,47.7,18.6,29.99,West,267,0.0,0.0,31,0.00,,---,0.00,VWS V14.01,2013-03-30 20:17:00,
2013-03-30 16:22:00,47.9,18.7,29.99,SW,214,0.0,0.0,31,0.00,,---,0.00,VWS V14.01,2013-03-30 20:22:00,
2013-03-30 16:27:00,47.9,19.5,29.98,SW,218,0.0,0.0,32,0.00,,---,0.00,VWS V14.01,2013-03-30 20:27:00,
2013-03-30 16:32:00,48.0,18.1,29.98,WNW,299,0.0,0.0,30,0.00,,---,0.00,VWS V14.01,2013-03-30 20:32:00,
2013-03-30 16:37:00,48.0,18.1,29.98,SW,232,0.0,0.0,30,0.00,,---,0.00,VWS V14.01,2013-03-30 20:37:00,
2013-03-30 16:42:00,48.0,18.1,29.98,WSW,257,0.0,0.0,30,0.00,,---,0.00,VWS V14.01,2013-03-30 20:42:00,
2013-03-30 16:47:00,48.2,18.2,29.97,SSW,202,0.0,0.0,30,0.00,,---,0.00,VWS V14.01,2013-03-30 20:47:00,
2013-03-30 16:52:00,48.3,17.5,29.97,SSW,192,0.0,0.0,29,0.00,,---,0.00,VWS V14.01,2013-03-30 20:52:00,
2013-03-30 16:57:00,48.0,20.3,29.96,SSW,192,0.0,0.0,33,0.00,,---,0.00,VWS V14.01,2013-03-30 20:57:00,
2013-03-30 17:02:00,47.4,19.8,29.96,SSW,192,0.0,0.0,33,0.00,,---,0.00,VWS V14.01,2013-03-30 21:02:00,
2013-03-30 17:07:00,47.7,20.0,29.96,SW,215,0.0,0.0,33,0.00,,---,0.00,VWS V14.01,2013-03-30 21:07:00,
2013-03-30 17:12:00,47.9,18.0,29.96,SW,217,0.0,0.0,30,0.00,,---,0.00,VWS V14.01,2013-03-30 21:12:00,
2013-03-30 17:17:00,48.0,18.1,29.96,WSW,240,0.0,0.0,30,0.00,,---,0.00,VWS V14.01,2013-03-30 21:17:00,
2013-03-30 17:22:00,47.9,19.5,29.95,SSW,208,0.0,0.0,32,0.00,,---,0.00,VWS V14.01,2013-03-30 21:22:00,
2013-03-30 17:27:00,47.6,18.5,29.94,SSW,208,0.0,0.0,31,0.00,,---,0.00,VWS V14.01,2013-03-30 21:27:00,
2013-03-30 17:32:00,47.3,19.7,29.94,SSW,208,0.0,0.0,33,0.00,,---,0.00,VWS V14.01,2013-03-30 21:32:00,
2013-03-30 17:37:00,47.1,19.5,29.93,WSW,239,0.0,0.0,33,0.00,,---,0.00,VWS V14.01,2013-03-30 21:37:00,
2013-03-30 17:42:00,47.0,18.7,29.93,SSW,209,0.0,0.0,32,0.00,,---,0.00,VWS V14.01,2013-03-30 21:42:00,
2013-03-30 17:47:00,47.0,21.5,29.93,WSW,238,0.0,0.0,36,0.00,,---,0.00,VWS V14.01,2013-03-30 21:47:00,
2013-03-30 17:52:00,46.0,23.0,29.93,WNW,284,0.0,0.0,40,0.00,,---,0.00,VWS V14.01,2013-03-30 21:52:00,
2013-03-30 17:57:00,45.5,23.2,29.92,WNW,284,0.0,0.0,41,0.00,,---,0.00,VWS V14.01,2013-03-30 21:57:00,
2013-03-30 18:02:00,45.4,23.1,29.92,WNW,284,0.0,0.0,41,0.00,,---,0.00,VWS V14.01,2013-03-30 22:02:00,
2013-03-30 18:07:00,45.2,22.9,29.92,WNW,284,0.0,0.0,41,0.00,,---,0.00,VWS V14.01,2013-03-30 22:07:00,
2013-03-30 18:12:00,45.2,21.7,29.92,WNW,284,0.0,0.0,39,0.00,,---,0.00,VWS V14.01,2013-03-30 22:12:00,
2013-03-30 18:17:00,45.4,20.7,29.92,WNW,284,0.0,0.0,37,0.00,,---,0.00,VWS V14.01,2013-03-30 22:17:00,
2013-03-30 18:23:00,45.5,20.1,29.92,WNW,296,0.0,0.0,36,0.00,,---,0.00,VWS V14.01,2013-03-30 22:23:00,
2013-03-30 18:28:00,45.5,22.0,29.92,WNW,296,0.0,0.0,39,0.00,,---,0.00,VWS V14.01,2013-03-30 22:28:00,
2013-03-30 18:33:00,45.4,21.9,29.91,WNW,296,0.0,0.0,39,0.00,,---,0.00,VWS V14.01,2013-03-30 22:33:00,
2013-03-30 18:38:00,45.2,22.9,29.91,WNW,296,0.0,0.0,41,0.00,,---,0.00,VWS V14.01,2013-03-30 22:38:00,
2013-03-30 18:43:00,45.1,23.4,29.91,WNW,296,0.0,0.0,42,0.00,,---,0.00,VWS V14.01,2013-03-30 22:43:00,
2013-03-30 18:48:00,44.9,22.6,29.91,WNW,296,0.0,0.0,41,0.00,,---,0.00,VWS V14.01,2013-03-30 22:48:00,
2013-03-30 18:53:00,44.6,22.4,29.90,West,261,0.0,0.0,41,0.00,,---,0.00,VWS V14.01,2013-03-30 22:53:00,
2013-03-30 18:58:00,44.5,20.5,29.90,SSE,166,0.0,0.0,38,0.00,,---,0.00,VWS V14.01,2013-03-30 22:58:00,
2013-03-30 19:03:00,44.6,18.7,29.90,WSW,240,0.0,0.0,35,0.00,,---,0.00,VWS V14.01,2013-03-30 23:03:00,
2013-03-30 19:08:00,44.8,20.1,29.90,SSW,210,0.0,0.0,37,0.00,,---,0.00,VWS V14.01,2013-03-30 23:08:00,
2013-03-30 19:13:00,45.1,18.4,29.90,SSW,205,0.0,0.0,34,0.00,,---,0.00,VWS V14.01,2013-03-30 23:13:00,
2013-03-30 19:18:00,45.2,19.2,29.90,SW,236,0.0,0.0,35,0.00,,---,0.00,VWS V14.01,2013-03-30 23:18:00,
2013-03-30 19:23:00,45.4,18.7,29.90,West,279,0.0,0.0,34,0.00,,---,0.00,VWS V14.01,2013-03-30 23:23:00,
2013-03-30 19:28:00,45.7,18.3,29.90,WSW,257,0.0,0.0,33,0.00,,---,0.00,VWS V14.01,2013-03-30 23:28:00,
2013-03-30 19:33:00,45.7,17.5,29.89,SSW,196,0.0,0.0,32,0.00,,---,0.00,VWS V14.01,2013-03-30 23:33:00,
2013-03-30 19:38:00,45.8,18.4,29.89,SW,216,0.0,0.0,33,0.00,,---,0.00,VWS V14.01,2013-03-30 23:38:00,
2013-03-30 19:43:00,45.8,20.4,29.89,SSW,202,0.0,0.0,36,0.00,,---,0.00,VWS V14.01,2013-03-30 23:43:00,
2013-03-30 19:48:00,45.8,18.4,29.88,SW,214,0.0,0.0,33,0.00,,---,0.00,VWS V14.01,2013-03-30 23:48:00,
2013-03-30 19:53:00,45.8,19.0,29.88,SW,226,0.0,0.0,34,0.00,,---,0.00,VWS V14.01,2013-03-30 23:53:00,
2013-03-30 19:58:00,45.8,19.7,29.88,SSW,202,0.0,0.0,35,0.00,,---,0.00,VWS V14.01,2013-03-30 23:58:00,
2013-03-30 20:03:00,45.7,19.6,29.88,SW,219,0.0,0.0,35,0.00,,---,0.00,VWS V14.01,2013-03-31 00:03:00,
2013-03-30 20:08:00,45.4,19.4,29.88,SW,217,0.0,0.0,35,0.00,,---,0.00,VWS V14.01,2013-03-31 00:08:00,
2013-03-30 20:13:00,45.2,19.9,29.88,South,185,0.0,0.0,36,0.00,,---,0.00,VWS V14.01,2013-03-31 00:13:00,
2013-03-30 20:18:00,44.9,18.2,29.88,SW,233,0.0,0.0,34,0.00,,---,0.00,VWS V14.01,2013-03-31 00:18:00,
2013-03-30 20:23:00,45.1,17.7,29.88,SW,222,0.0,0.0,33,0.00,,---,0.00,VWS V14.01,2013-03-31 00:23:00,
2013-03-30 20:28:00,45.4,18.0,29.88,SW,227,0.0,0.0,33,0.00,,---,0.00,VWS V14.01,2013-03-31 00:28:00,
2013-03-30 20:33:00,45.4,18.0,29.87,SSW,200,0.0,0.0,33,0.00,,---,0.00,VWS V14.01,2013-03-31 00:33:00,
2013-03-30 20:38:00,45.5,18.8,29.87,SW,221,0.0,0.0,34,0.00,,---,0.00,VWS V14.01,2013-03-31 00:38:00,
2013-03-30 20:43:00,45.5,19.5,29.87,SW,215,0.0,0.0,35,0.00,,---,0.00,VWS V14.01,2013-03-31 00:43:00,
2013-03-30 20:48:00,45.4,20.0,29.87,SW,220,0.0,0.0,36,0.00,,---,0.00,VWS V14.01,2013-03-31 00:48:00,
2013-03-30 20:53:00,45.4,20.7,29.87,SSW,210,0.0,0.0,37,0.00,,---,0.00,VWS V14.01,2013-03-31 00:53:00,
2013-03-30 20:58:00,45.4,19.4,29.87,South,180,0.0,0.0,35,0.00,,---,0.00,VWS V14.01,2013-03-31 00:58:00,
2013-03-30 21:03:00,45.4,18.7,29.87,SSW,192,0.0,0.0,34,0.00,,---,0.00,VWS V14.01,2013-03-31 01:03:00,
2013-03-30 21:08:00,45.5,20.8,29.87,West,263,0.0,0.0,37,0.00,,---,0.00,VWS V14.01,2013-03-31 01:08:00,
2013-03-30 21:13:00,45.8,22.3,29.87,SW,217,0.0,0.0,39,0.00,,---,0.00,VWS V14.01,2013-03-31 01:13:00,
2013-03-30 21:18:00,46.1,22.5,29.87,West,274,0.0,0.0,39,0.00,,---,0.00,VWS V14.01,2013-03-31 01:18:00,
2013-03-30 21:23:00,46.1,23.1,29.87,SSW,194,0.0,0.0,40,0.00,,---,0.00,VWS V14.01,2013-03-31 01:23:00,
2013-03-30 21:28:00,46.1,23.7,29.87,SW,222,0.0,0.0,41,0.00,,---,0.00,VWS V14.01,2013-03-31 01:28:00,
2013-03-30 21:33:00,46.1,23.7,29.87,WNW,286,0.0,0.0,41,0.00,,---,0.00,VWS V14.01,2013-03-31 01:33:00,
2013-03-30 21:38:00,46.1,24.3,29.87,SW,231,0.0,0.0,42,0.00,,---,0.00,VWS V14.01,2013-03-31 01:38:00,
2013-03-30 21:43:00,46.0,25.9,29.87,West,264,0.0,0.0,45,0.00,,---,0.00,VWS V14.01,2013-03-31 01:43:00,
2013-03-30 21:49:00,45.8,29.2,29.86,SW,229,0.0,0.0,52,0.00,,---,0.00,VWS V14.01,2013-03-31 01:49:00,
2013-03-30 21:54:00,45.4,31.1,29.86,West,273,0.0,0.0,57,0.00,,---,0.00,VWS V14.01,2013-03-31 01:54:00,
2013-03-30 21:59:00,45.1,31.6,29.86,WSW,237,0.0,0.0,59,0.00,,---,0.00,VWS V14.01,2013-03-31 01:59:00,
2013-03-30 22:04:00,44.6,32.4,29.86,WSW,240,0.0,0.0,62,0.00,,---,0.00,VWS V14.01,2013-03-31 02:04:00,
2013-03-30 22:09:00,44.2,33.2,29.86,WSW,243,0.0,0.0,65,0.01,,---,0.01,VWS V14.01,2013-03-31 02:09:00,
2013-03-30 22:14:00,43.8,34.3,29.86,SSW,202,0.0,0.0,69,0.01,,---,0.01,VWS V14.01,2013-03-31 02:14:00,
2013-03-30 22:19:00,43.2,34.5,29.85,WSW,254,0.0,0.0,71,0.02,,---,0.02,VWS V14.01,2013-03-31 02:19:00,
2013-03-30 22:24:00,42.8,35.4,29.85,WSW,252,0.0,0.0,75,0.02,,---,0.02,VWS V14.01,2013-03-31 02:24:00,
2013-03-30 22:29:00,42.3,35.6,29.85,SSW,212,0.0,0.0,77,0.03,,---,0.03,VWS V14.01,2013-03-31 02:29:00,
2013-03-30 22:34:00,41.9,35.9,29.85,SW,218,0.0,0.0,79,0.04,,---,0.04,VWS V14.01,2013-03-31 02:34:00,
2013-03-30 22:39:00,41.8,36.1,29.85,SW,236,0.0,0.0,80,0.04,,---,0.04,VWS V14.01,2013-03-31 02:39:00,
2013-03-30 22:44:00,41.5,36.4,29.85,West,279,0.0,0.0,82,0.04,,---,0.04,VWS V14.01,2013-03-31 02:44:00,
2013-03-30 22:49:00,41.3,36.5,29.84,SSW,211,0.0,0.0,83,0.05,,---,0.05,VWS V14.01,2013-03-31 02:49:00,
2013-03-30 22:54:00,41.2,36.7,29.84,SSW,202,0.0,0.0,84,0.05,,---,0.05,VWS V14.01,2013-03-31 02:54:00,
2013-03-30 22:59:00,41.1,36.9,29.84,SSW,202,0.0,0.0,85,0.06,,---,0.06,VWS V14.01,2013-03-31 02:59:00,
2013-03-30 23:04:00,41.1,37.2,29.83,SSW,208,0.0,0.0,86,0.06,,---,0.06,VWS V14.01,2013-03-31 03:04:00,
2013-03-30 23:09:00,40.9,37.0,29.83,SW,236,0.0,0.0,86,0.06,,---,0.06,VWS V14.01,2013-03-31 03:09:00,
2013-03-30 23:14:00,40.9,37.0,29.83,SW,233,0.0,0.0,86,0.06,,---,0.07,VWS V14.01,2013-03-31 03:14:00,
2013-03-30 23:19:00,40.8,37.2,29.83,SSW,194,0.0,0.0,87,0.06,,---,0.07,VWS V14.01,2013-03-31 03:19:00,
2013-03-30 23:24:00,40.6,37.0,29.83,SW,215,0.0,0.0,87,0.05,,---,0.07,VWS V14.01,2013-03-31 03:24:00,
2013-03-30 23:29:00,40.5,37.2,29.82,SSW,199,0.0,0.0,88,0.06,,---,0.08,VWS V14.01,2013-03-31 03:29:00,
2013-03-30 23:34:00,40.3,37.3,29.82,South,184,0.0,0.0,89,0.05,,---,0.08,VWS V14.01,2013-03-31 03:34:00,
2013-03-30 23:39:00,40.2,37.2,29.82,SSW,196,0.0,0.0,89,0.05,,---,0.08,VWS V14.01,2013-03-31 03:39:00,
2013-03-30 23:44:00,40.2,37.5,29.81,South,189,0.0,0.0,90,0.05,,---,0.09,VWS V14.01,2013-03-31 03:44:00,
2013-03-30 23:49:00,40.2,37.5,29.81,SSW,207,0.0,0.0,90,0.05,,---,0.09,VWS V14.01,2013-03-31 03:49:00,
2013-03-30 23:54:00,40.1,37.4,29.81,SSW,205,0.0,0.0,90,0.04,,---,0.09,VWS V14.01,2013-03-31 03:54:00,
2013-03-30 23:59:00,40.1,37.7,29.80,South,183,0.0,0.0,91,0.05,,---,0.10,VWS V14.01,2013-03-31 03:59:00,